When you browse on this site, cookies collect data to enhance your experience and personalize the content and advertising you see.
Visit our Privacy Policy to learn more. By continuing to use the site, you agree to this use of cookies and data.

Stündliche Wetter Kabul

Heute, 18 September, Freitag

Zeit Temperatur Niederschläge Wind Luftdruck Luftfeuchtigkeit
00:00 +17°C° 0 mm 2 m/S 610 mmHg 29%
01:00 +18°C° 0 mm 1 m/S 610 mmHg 31%
02:00 +16°C° 0 mm 1 m/S 610 mmHg 32%
03:00 +16°C° 0 mm 1 m/S 609 mmHg 33%
04:00 +15°C° 0 mm 1 m/S 609 mmHg 34%
05:00 +15°C° 0 mm 1 m/S 609 mmHg 34%
06:00 +16°C° 0 mm 1 m/S 609 mmHg 32%
07:00 +18°C° 0 mm 1 m/S 610 mmHg 30%
08:00 +19°C° 0 mm 1 m/S 611 mmHg 28%
09:00 +20°C° 0 mm 1 m/S 611 mmHg 26%
10:00 +22°C° 0 mm 1 m/S 611 mmHg 23%
11:00 +23°C° 0 mm 1 m/S 611 mmHg 20%
12:00 +24°C° 0 mm 1 m/S 611 mmHg 18%
13:00 +26°C° 0 mm 1 m/S 611 mmHg 16%
14:00 +27°C° 0 mm 2 m/S 611 mmHg 13%
15:00 +27°C° 0 mm 2 m/S 611 mmHg 13%
16:00 +27°C° 0 mm 3 m/S 611 mmHg 13%
17:00 +27°C° 0 mm 4 m/S 611 mmHg 13%
18:00 +25°C° 0 mm 3 m/S 611 mmHg 17%
19:00 +22°C° 0 mm 3 m/S 611 mmHg 21%
20:00 +20°C° 0 mm 2 m/S 610 mmHg 25%
21:00 +19°C° 0 mm 2 m/S 610 mmHg 26%
22:00 +18°C° 0 mm 2 m/S 610 mmHg 27%
23:00 +19°C° 0 mm 1 m/S 609 mmHg 29%

Morgen, 19 September, Samstag

Zeit Temperatur Niederschläge Wind Luftdruck Luftfeuchtigkeit
00:00 +18°C° 0 mm 1 m/S 609 mmHg 29%
01:00 +16°C° 0 mm 1 m/S 609 mmHg 30%
02:00 +16°C° 0 mm 1 m/S 609 mmHg 30%
03:00 +15°C° 0 mm 1 m/S 608 mmHg 31%
04:00 +15°C° 0 mm 1 m/S 608 mmHg 31%
05:00 +13°C° 0 mm 0 m/S 608 mmHg 31%
06:00 +16°C° 0 mm 1 m/S 608 mmHg 28%
07:00 +18°C° 0 mm 1 m/S 609 mmHg 25%
08:00 +19°C° 0 mm 1 m/S 610 mmHg 21%
09:00 +21°C° 0 mm 1 m/S 610 mmHg 19%
10:00 +23°C° 0 mm 1 m/S 611 mmHg 16%
11:00 +24°C° 0 mm 1 m/S 611 mmHg 14%
12:00 +26°C° 0 mm 1 m/S 611 mmHg 11%
13:00 +27°C° 0 mm 2 m/S 611 mmHg 9%
14:00 +28°C° 0 mm 2 m/S 611 mmHg 7%
15:00 +28°C° 0 mm 2 m/S 611 mmHg 6%
16:00 +29°C° 0 mm 2 m/S 611 mmHg 5%
17:00 +29°C° 0 mm 2 m/S 611 mmHg 5%
18:00 +27°C° 0 mm 2 m/S 610 mmHg 7%
19:00 +25°C° 0 mm 1 m/S 610 mmHg 10%
20:00 +23°C° 0 mm 1 m/S 610 mmHg 12%
21:00 +22°C° 0 mm 1 m/S 609 mmHg 13%
22:00 +21°C° 0 mm 1 m/S 609 mmHg 15%
23:00 +20°C° 0 mm 1 m/S 609 mmHg 16%

übermorgen, 20 September, Sonntag

Zeit Temperatur Niederschläge Wind Luftdruck Luftfeuchtigkeit
00:00 +17°C° 0 mm 0 m/S 608 mmHg 16%
01:00 +16°C° 0 mm 0 m/S 608 mmHg 17%
02:00 +15°C° 0 mm 0 m/S 607 mmHg 17%
03:00 +15°C° 0 mm 0 m/S 607 mmHg 16%
04:00 +14°C° 0 mm 0 m/S 607 mmHg 16%
05:00 +14°C° 0 mm 0 m/S 607 mmHg 15%
06:00 +16°C° 0 mm 0 m/S 608 mmHg 13%
07:00 +18°C° 0 mm 0 m/S 609 mmHg 11%
08:00 +20°C° 0 mm 0 m/S 611 mmHg 9%
09:00 +24°C° 0 mm 1 m/S 611 mmHg 8%
10:00 +26°C° 0 mm 1 m/S 611 mmHg 7%
11:00 +27°C° 0 mm 1 m/S 612 mmHg 6%
12:00 +28°C° 0 mm 1 m/S 612 mmHg 5%
13:00 +29°C° 0 mm 1 m/S 612 mmHg 5%
14:00 +30°C° 0 mm 1 m/S 612 mmHg 4%
15:00 +30°C° 0 mm 1 m/S 612 mmHg 4%
16:00 +30°C° 0 mm 2 m/S 611 mmHg 3%
17:00 +30°C° 0 mm 2 m/S 611 mmHg 3%
18:00 +28°C° 0 mm 2 m/S 611 mmHg 5%
19:00 +25°C° 0 mm 2 m/S 610 mmHg 6%
20:00 +23°C° 0 mm 1 m/S 610 mmHg 8%
21:00 +22°C° 0 mm 1 m/S 610 mmHg 9%
22:00 +21°C° 0 mm 1 m/S 609 mmHg 9%
23:00 +20°C° 0 mm 1 m/S 609 mmHg 9%

21 September, Montag

Zeit Temperatur Niederschläge Wind Luftdruck Luftfeuchtigkeit
00:00 +19°C° 0 mm 1 m/S 609 mmHg 9%
01:00 +18°C° 0 mm 1 m/S 608 mmHg 9%
02:00 +16°C° 0 mm 1 m/S 608 mmHg 9%
03:00 +16°C° 0 mm 1 m/S 608 mmHg 9%
04:00 +15°C° 0 mm 1 m/S 607 mmHg 10%
05:00 +15°C° 0 mm 1 m/S 607 mmHg 10%
06:00 +16°C° 0 mm 1 m/S 608 mmHg 9%
07:00 +19°C° 0 mm 1 m/S 609 mmHg 8%
08:00 +21°C° 0 mm 1 m/S 610 mmHg 7%
09:00 +23°C° 0 mm 1 m/S 611 mmHg 6%
10:00 +24°C° 0 mm 1 m/S 611 mmHg 5%
11:00 +26°C° 0 mm 1 m/S 612 mmHg 5%
12:00 +27°C° 0 mm 1 m/S 612 mmHg 4%
13:00 +28°C° 0 mm 1 m/S 612 mmHg 4%
14:00 +30°C° 0 mm 2 m/S 612 mmHg 3%
15:00 +29°C° 0 mm 3 m/S 612 mmHg 4%
16:00 +29°C° 0 mm 4 m/S 611 mmHg 4%
17:00 +29°C° 0 mm 5 m/S 611 mmHg 4%
18:00 +26°C° 0 mm 4 m/S 611 mmHg 6%
19:00 +24°C° 0 mm 3 m/S 611 mmHg 7%
20:00 +20°C° 0 mm 2 m/S 610 mmHg 8%
21:00 +19°C° 0 mm 2 m/S 610 mmHg 9%
22:00 +18°C° 0 mm 2 m/S 610 mmHg 10%
23:00 +18°C° 0 mm 1 m/S 609 mmHg 11%

22 September, Dienstag

Zeit Temperatur Niederschläge Wind Luftdruck Luftfeuchtigkeit
00:00 +16°C° 0 mm 1 m/S 609 mmHg 11%
01:00 +16°C° 0 mm 1 m/S 609 mmHg 12%
02:00 +15°C° 0 mm 1 m/S 608 mmHg 13%
03:00 +14°C° 0 mm 1 m/S 608 mmHg 13%
04:00 +14°C° 0 mm 1 m/S 608 mmHg 14%
05:00 +13°C° 0 mm 1 m/S 608 mmHg 15%
06:00 +15°C° 0 mm 1 m/S 609 mmHg 14%
07:00 +18°C° 0 mm 1 m/S 610 mmHg 12%
08:00 +19°C° 0 mm 1 m/S 610 mmHg 11%
09:00 +21°C° 0 mm 1 m/S 611 mmHg 10%
10:00 +22°C° 0 mm 1 m/S 611 mmHg 9%
11:00 +24°C° 0 mm 1 m/S 611 mmHg 8%
12:00 +25°C° 0 mm 1 m/S 611 mmHg 8%
13:00 +27°C° 0 mm 1 m/S 611 mmHg 7%
14:00 +28°C° 0 mm 1 m/S 611 mmHg 7%
15:00 +28°C° 0 mm 1 m/S 611 mmHg 7%
16:00 +28°C° 0 mm 2 m/S 611 mmHg 7%
17:00 +28°C° 0 mm 2 m/S 611 mmHg 7%
18:00 +26°C° 0 mm 2 m/S 610 mmHg 9%
19:00 +24°C° 0 mm 2 m/S 610 mmHg 12%
20:00 +21°C° 0 mm 2 m/S 609 mmHg 14%
21:00 +20°C° 0 mm 2 m/S 609 mmHg 15%
22:00 +20°C° 0 mm 1 m/S 609 mmHg 16%
23:00 +19°C° 0 mm 1 m/S 608 mmHg 17%

23 September, Mittwoch

Zeit Temperatur Niederschläge Wind Luftdruck Luftfeuchtigkeit
00:00 +18°C° 0 mm 1 m/S 608 mmHg 18%
01:00 +16°C° 0 mm 1 m/S 608 mmHg 19%
02:00 +15°C° 0 mm 0 m/S 607 mmHg 19%
03:00 +14°C° 0 mm 0 m/S 607 mmHg 20%
04:00 +13°C° 0 mm 0 m/S 607 mmHg 20%
05:00 +13°C° 0 mm 0 m/S 607 mmHg 21%
06:00 +15°C° 0 mm 0 m/S 608 mmHg 19%
07:00 +16°C° 0 mm 0 m/S 609 mmHg 16%
08:00 +18°C° 0 mm 0 m/S 610 mmHg 14%
09:00 +19°C° 0 mm 0 m/S 610 mmHg 13%
10:00 +23°C° 0 mm 1 m/S 610 mmHg 12%
11:00 +24°C° 0 mm 1 m/S 611 mmHg 11%
12:00 +26°C° 0 mm 1 m/S 610 mmHg 10%
13:00 +27°C° 0 mm 2 m/S 610 mmHg 9%
14:00 +28°C° 0 mm 2 m/S 610 mmHg 8%
15:00 +28°C° 0 mm 2 m/S 610 mmHg 9%
16:00 +28°C° 0 mm 3 m/S 610 mmHg 9%
17:00 +28°C° 0 mm 3 m/S 610 mmHg 9%
18:00 +25°C° 0 mm 3 m/S 610 mmHg 13%
19:00 +22°C° 0 mm 3 m/S 609 mmHg 16%
20:00 +20°C° 0 mm 2 m/S 609 mmHg 20%
21:00 +19°C° 0 mm 2 m/S 609 mmHg 22%
22:00 +18°C° 0 mm 2 m/S 609 mmHg 24%
23:00 +18°C° 0 mm 1 m/S 608 mmHg 26%
Mehr zeigen